Starlink 32440

operational
NORAD ID: 61714 Int'l Des: 2024-196 Owner: SPXS Country: US Constellation: starlink
LEOCIRCULAR

Über Starlink 32440

Beschreibung wird geladen...

Live-Position

3D-Globus wird geladen...

Nächste Überflüge

Höhenverlauf

Altitude vs Time

uPlot chart will show altitude changes over time

Zweizeiliger Elementsatz

1 61714U 24196H 25352.09473658 -.00001034 00000-0 -22799-4 0 9993
2 61714 53.1612 120.3693 0001156 91.3026 268.8107 15.30184007 64660
Epoch: 18. Dez. 2025 • Age: 18 hours

Aktueller Status

Höhe 483.3 km
Geschwindigkeit 7.62 km/s
Subsatellitenpunkt -25.97°S, 76.22°W
Startdatum 30. Okt. 2024
Alter 1.1 years
Typ internet

Technische Details

Klassifizierung Payload
Masse 730.00 kg
Trockenmasse 700.00 kg
Gesamtmasse 730.00 kg
Länge 0.30 m
Durchmesser 4.10 m
Spannweite 29.00 m
Form Box + pan
Hersteller SPXS
Bus-Typ Starlink V2M
Phasenstatus In Orbit
Besitzer/Staat SPXS/US

Große Konstellationen

Loading constellations...